Regional Weather Roundup
Issued by NWS Mt. Holly, NJ

Home | Current Version | Previous Version | Text Only | Print | Product List | Glossary On
Versions: 1 2 3 4 5 6 7 8 9 10 11 12 13 14 15 16 17 18 19 20 21 22 23 24 25 26 27 28 29 30 31 32 33 34 35 36 37 38 39 40 41 42 43 44 45 46 47 48 49 50
000
ASUS41 KPHI 180210
RWRPHI

REGIONAL WEATHER ROUNDUP
NATIONAL WEATHER SERVICE MOUNT HOLLY NJ
1000 PM EDT WED SEP 17 2014

NOTE:  "FAIR" INDICATES FEW OR NO CLOUDS BELOW 12,000 FEET WITH NO
SIGNIFICANT WEATHER AND/OR OBSTRUCTIONS TO VISIBILITY.

 * = STATION DOES NOT REPORT PRECIPITATION (E.G. RAIN, SNOW, ETC.)
        OR FOG.

NJZ015>026-180300-
SOUTHERN NEW JERSEY

CITY           SKY/WX    TMP DP  RH WIND       PRES   REMARKS
POMONA         CLEAR     54  52  93 CALM      29.99S
RIO GRANDE*    CLEAR     57  50  77 CALM      30.00S
MILLVILLE      CLEAR     55  53  93 CALM      29.99S
WRIGHTSTOWN    CLEAR     57  53  87 SE2       29.98R
MOUNT HOLLY    CLEAR     58  53  84 CALM      29.99S
TRENTON        CLEAR     60  52  74 S5        29.99R

$$
NJZ001>014-180300-
NORTHERN NEW JERSEY

CITY           SKY/WX    TMP DP  RH WIND       PRES   REMARKS
SUSSEX         CLEAR     52  48  86 CALM      30.00S
ANDOVER*         N/A     49  48  97 CALM      30.00S
MORRISTOWN     CLEAR     52  48  87 CALM      30.00R
NEWARK         PTCLDY    64  53  67 S7        29.99R
TETERBORO      CLEAR     63  45  51 CALM      29.97S
CALDWELL       CLEAR     55  47  74 CALM      29.99S
SOMERVILLE     CLEAR     51  48  89 CALM      29.98R
ALLAIRE*       CLEAR     55  48  76 CALM      30.00S
TOMS RIVER*    CLEAR     52  46  82 CALM      30.00S

$$
PAZ043-044-047-054-055-060>062-066>071-180300-
EASTERN PENNSYLVANIA

CITY           SKY/WX    TMP DP  RH WIND       PRES   REMARKS
PHILADELPHIA   PTCLDY    64  52  64 S7        29.99R
NORTH PHILA    CLEAR     64  52  64 SE3       30.00S
BLUE BELL      CLEAR     52  50  93 CALM      29.98S
DOYLESTOWN     CLEAR     54  50  86 CALM      29.98S
QUAKERTOWN*    CLEAR     50  48  93 CALM      30.00S
POTTSTOWN      CLEAR     54  51  90 CALM      30.00S
LANCASTER      CLEAR     55  48  77 NE3       29.99R
COATESVILLE    PTCLDY    55  54  94 CALM      30.00S
READING        CLEAR     57  49  74 CALM      29.98S
ALLENTOWN      CLEAR     55  47  74 CALM      29.99S
MOUNT POCONO   CLEAR     45  32  60 CALM      30.01S
HAZLETON       CLEAR     48  46  93 CALM      30.03F
WILKES BARRE   CLEAR     54  43  66 E7        29.99S

$$
DEZALL-MDZ008-012-015-019-020-180300-
DELAWARE AND EASTERN MARYLAND

CITY           SKY/WX    TMP DP  RH WIND       PRES   REMARKS
WILMINGTON     CLEAR     59  53  80 CALM      29.99S
DOVER          CLEAR     61  52  71 S5        29.96F
GEORGETOWN     CLEAR     57  51  80 MISG      30.00S
PATUXENT       PTCLDY    56  52  86 W5        29.97S
OCEAN CITY     CLEAR     54  52  93 CALM      29.98F
WALLOPS ISLAND CLEAR     65  53  65 E5        29.99S
CAMBRIDGE      CLEAR     61  54  77 CALM      29.98S
SALISBURY      CLEAR     60  53  77 CALM      29.98F

$$
PAZ001-021-NYZ056-072-MDZ011-DCZ001-180300-
OTHER NEARBY LOCATIONS

CITY           SKY/WX    TMP DP  RH WIND       PRES   REMARKS
HARRISBURG     PTCLDY    56  51  84 CALM      29.97S
STATE COLLEGE  PTCLDY    55  51  86 CALM      29.99S
WILLIAMSPORT   CLEAR     54  49  83 CALM      29.97S
BINGHAMTON     CLEAR     56  44  64 SE3       29.99F
NEW YORK CITY  CLEAR     64  46  52 CALM      30.01S
BALTIMORE      CLEAR     57  53  86 CALM      29.98R
WASHINGTON DC  CLEAR     67  49  52 SE3       29.99R

$$



USA.gov is the U.S. government's official web portal to all federal, state and local government web resources and services.